OBJECT C, 64868

Orbit data source: Space-Track

You're viewing an Uncataloged Satellite

Recently launched and/or uncataloged satellites may have evolving metadata. Metadata may include but not limited to: Owner, Maufacturer, Bus, Motor, and Mission.

OBJECT C, 64868 is a satellite in LEO that was launched on Tue, 22 Jul 2025 UTC launched from the Air Force Eastern Test Range (AFETR). Unknown objects in Earth's orbit typically refer to objects detected orbiting the Earth but have not yet been identified or cataloged. These objects could be anything from previously untracked satellites, spent rocket stages, debris from satellite collisions, or even natural meteoroids temporarily captured by Earth's gravity.

Loading next visibility...
Identifier
64868, 2025-153C
Orbit
LEO
Country
Flag of TBDTBD
Related business
Manufacturer
SpaceX
Mission
Spacecraft
Bus & Motor
F9ST2, Unknown motor
Mass
~4,000 kg wet, ~4,000 kg dry
Launch date (UTC)
2025-07-22 (11 months ago)
Launch vehicle
Unknown
Launch site
Air Force Eastern Test Range (AFETR)
Object type
Unknown
Shape & HBR
Cyl, 1.1 m
Radar Cross Section
39.980 m², Large (>1 m²)

Expand to show TLE details & history
Last TLE update: 21 hours ago

TLE from 21 hours ago
0 OBJECT C
1 64868U 25153C   26170.97804834  .00000015  00000-0 -14023-1 0  9995
2 64868   9.7186 319.4719 1943205  62.7902 315.6869  7.32293983 24346
Epoch: 2026-06-19T23:28Z
TLE epoch observation values (Epoch: 2026-06-19T23:28:23.376Z)
Latitude
-0.00002°
Longitude
59.17512°
Altitude
3,518.74 km
Speed
6.707 km/s
True Right ascension
21h 17m 53s
True Declination
0° 00' 00"
Sunlit
Object was in daylight at epoch
Visualization orbit readout
Latitude
Unknown
Longitude
Unknown
Altitude
Unknown
Speed
Unknown
Apparent Right ascension
Unknown
Apparent Declination
Unknown
Sunlit
N/A
Visualization observer readout
Local Sidereal Time
07:21:20
Azimuth
Unknown
Elevation
Unknown
Doppler factor
Unknown
Orbital elements
Apogee altitude
7,004.878 km
Perigee altitude
2,649.943 km
Semi-major axis
11,205.547 km
Eccentricity
0.19432
Inclination
9.7186°
RAAN
319.4719°
Arg. of periapsis
62.7902°
True anomaly
297.22378°
Mean anomaly
315.6869°
Eccentric anomaly
306.76804°
Mean motion
1.82976 °/min
Orbital period
196.75 mins
BSTAR
-0.014023
Loading maneuver chart data...
Computing Atmospheric mass density...
Loading historical data...
Loading historical data...
Loading historical data...
Loading historical data...
Loading historical data...
Loading historical data...
Loading historical data...
Other satellites on launch #153 in the year 2025 (2025-07-22 UTC)

Documentation

Showing up to 5 results
|